Hourly Data Report for October 01, 2017

All times are specified in Local Standard Time (LST). Add 1 hour to adjust for Daylight Saving Time where and when it is observed.

NAPPAN AUTO
NOVA SCOTIA

45°45'34.400" N
64°14'29.200" W
19.80 m
8203702
71311
XNP

Download Data

Hourly Data (October 2017)
Hourly Data Report for October 1, 2017
Temp Definition
°C
Dew Point Temp Definition
°C
Rel Hum Definition
%
Wind Dir Definition
10's deg

Wind Spd Definition
km/h
Visibility Definition
km
Stn Press Definition
kPa
Hmdx Definition


Wind Chill Definition


Weather Definition


TIME
00:00 2.3 2.0 98 18 8   102.21     LegendNANA
01:00 0.8 0.5 98 17 8   102.20     LegendNANA
02:00 2.5 2.2 98 18 10   102.20     LegendNANA
03:00 -0.6 -0.9 98 21 9   102.17   -4 LegendNANA
04:00 0.4 0.3 100 18 8   102.13     LegendNANA
05:00 -0.7 -0.7 100 18 9   102.11   -4 LegendNANA
06:00 1.0 1.0 100 16 9   102.10     LegendNANA
07:00 -0.2 -0.4 98 18 7   102.09   -3 LegendNANA
08:00 4.4 3.4 93 19 9   102.09     LegendNANA
09:00 8.7 6.1 83 19 11   102.05     LegendNANA
10:00 13.2 5.6 60 23 19   102.00     LegendNANA
11:00 14.3 4.1 50 22 23   101.95     LegendNANA
12:00 15.2 2.0 41 23 23   101.86     LegendNANA
13:00 16.0 -0.2 33 22 27   101.76     LegendNANA
14:00 16.6 1.1 35 23 26   101.68     LegendNANA
15:00 15.9 3.8 44 22 25   101.64     LegendNANA
16:00 15.0 5.5 53 23 21   101.61     LegendNANA
17:00 13.6 5.4 58 22 20   101.62     LegendNANA
18:00 11.5 5.1 65 21 23   101.66     LegendNANA
19:00 10.5 6.1 74 21 21   101.71     LegendNANA
20:00 9.6 6.3 80 19 10   101.76     LegendNANA
21:00 9.8 7.4 85 16 9   101.77     LegendNANA
22:00 9.2 7.4 88 19 11   101.76     LegendNANA
23:00 7.7 6.5 92 15 11   101.75     LegendNANA

Notes on Data Quality.

Legend

  • E = Estimated
  • M = Missing
  • NA = Not Available
  • ‡ = Partner data that is not subject to review by the National Climate Archives
Date modified: